This is the latest recevied weather packets stored in our database for station/object WD4ITN. If no packets are shown the sender has not sent any weather packets the latest 10 day(s).
| Time | Temp. | Humidity | Pressure | Rain* | Wind** | Luminosity | Snow |
|---|---|---|---|---|---|---|---|
| 1777991299 | 18.89° C | 52% | 1012.7 hPa | 0 mm | - | - | - |
| 1777990998 | 19.44° C | 57% | 1012.8 hPa | 0 mm | - | - | - |
| 1777990714 | 18.89° C | 58% | 1012.8 hPa | 0 mm | - | - | - |
| 1777990402 | 18.89° C | 55% | 1012.6 hPa | 0 mm | - | - | - |
| 1777989818 | 18.33° C | 57% | 1012.7 hPa | 0 mm | - | - | - |
| 1777989509 | 18.33° C | 58% | 1012.7 hPa | 0 mm | - | - | - |
| 1777989207 | 18.33° C | 59% | 1012.8 hPa | 0 mm | - | - | - |
| 1777988904 | 18.33° C | 57% | 1012.8 hPa | 0 mm | - | - | - |
| 1777988598 | 17.78° C | 58% | 1012.7 hPa | 0 mm | - | - | - |
| 1777988296 | 17.78° C | 58% | 1012.8 hPa | 0 mm | - | - | - |
| 1777988013 | 17.78° C | 57% | 1012.6 hPa | 0 mm | - | - | - |
| 1777987708 | 17.78° C | 59% | 1012.8 hPa | 0 mm | - | - | - |
| 1777987406 | 17.78° C | 60% | 1012.5 hPa | 0 mm | - | - | - |
| 1777987108 | 17.78° C | 63% | 1012.6 hPa | 0 mm | - | - | - |
| 1777986799 | 17.22° C | 61% | 1012.8 hPa | 0 mm | - | - | - |
| 1777986499 | 17.22° C | 63% | 1012.7 hPa | 0 mm | - | - | - |
| 1777986217 | 17.22° C | 60% | 1012.8 hPa | 0 mm | - | - | - |
| 1777985912 | 17.22° C | 62% | 1012.7 hPa | 0 mm | - | - | - |
| 1777985610 | 16.67° C | 60% | 1012.6 hPa | 0 mm | - | - | - |
| 1777985306 | 16.67° C | 63% | 1012.6 hPa | 0 mm | - | - | - |
| 1777984997 | 16.67° C | 63% | 1012.7 hPa | 0 mm | - | - | - |
| 1777984693 | 16.67° C | 64% | 1012.6 hPa | 0 mm | - | - | - |
| 1777984417 | 16.11° C | 66% | 1012.7 hPa | 0 mm | - | - | - |
| 1777984107 | 16.11° C | 66% | 1012.7 hPa | 0 mm | - | - | - |
| 1777983805 | 16.11° C | 66% | 1012.8 hPa | 0 mm | - | - | - |
* Rain since midnight (hover to see other rain measurements)
** Current wind speed in m/s (hover to see current wind gust speed)